CW6734 Weather Reports


Display with metric or nautical units.
time (UTC)temp
F
wind
direction
speed
MPH
gust
MPH
rain 1hr
in
rain 24hr
in
rain mn
in
humidity
%
barometer
mb
20170626190057 69 272 1.0 6.0 0.00 0.00 0.00 47 1018.2
20170626185754 69 327 1.0 9.0 0.00 0.00 0.00 50 1018.1
20170626185139 69 300 2.0 9.0 0.00 0.00 0.00 52 1018.1
20170626184834 70 184 2.0 9.0 0.00 0.00 0.00 48 1018.1
20170626184532 70 281 2.0 9.0 0.00 0.00 0.00 48 1018.2
20170626184230 70 226 2.0 9.0 0.00 0.00 0.00 51 1018.1
20170626183933 70 279 1.0 6.0 0.00 0.00 0.00 52 1018.2
20170626183632 70 298 1.0 6.0 0.00 0.00 0.00 48 1018.1
20170626183026 69 306 1.0 5.0 0.00 0.00 0.00 53 1018.2
20170626182718 69 196 1.0 5.0 0.00 0.00 0.00 57 1018.3
20170626182411 68 335 1.0 5.0 0.00 0.00 0.00 55 1018.4
20170626181756 68 328 1.0 5.0 0.00 0.00 0.00 56 1018.6
20170626180847 67 105 1.0 5.0 0.00 0.00 0.00 56 1018.7
20170626180236 67 326 1.0 5.0 0.00 0.00 0.00 57 1018.5
20170626175935 67 241 1.0 6.0 0.00 0.00 0.00 54 1018.5
20170626175623 67 262 1.0 6.0 0.00 0.00 0.00 55 1018.6
20170626175322 68 232 1.0 6.0 0.00 0.00 0.00 54 1018.6
20170626175017 68 326 1.0 6.0 0.00 0.00 0.00 55 1018.6
20170626174056 69 298 1.0 7.0 0.00 0.00 0.00 50 1018.5
20170626173759 70 288 2.0 7.0 0.00 0.00 0.00 53 1018.5
20170626173449 70 343 1.0 7.0 0.00 0.00 0.00 52 1018.5
20170626173149 70 264 2.0 7.0 0.00 0.00 0.00 52 1018.4
20170626172545 70 303 2.0 4.0 0.00 0.00 0.00 51 1018.4
20170626172237 70 355 2.0 6.0 0.00 0.00 0.00 52 1018.4
20170626171929 70 322 1.0 6.0 0.00 0.00 0.00 54 1018.5
20170626171624 69 338 1.0 6.0 0.00 0.00 0.00 62 1018.6
20170626171315 68 72 1.0 7.0 0.00 0.00 0.00 59 1018.6
20170626170407 68 290 1.0 7.0 0.00 0.00 0.00 59 1018.6
20170626165803 68 273 1.0 7.0 0.00 0.00 0.00 57 1018.6
20170626165151 68 120 1.0 7.0 0.00 0.00 0.00 61 1018.6
20170626164849 68 236 1.0 7.0 0.00 0.00 0.00 60 1018.7
20170626164237 68 325 1.0 6.0 0.00 0.00 0.00 59 1018.7
20170626163930 68 176 1.0 6.0 0.00 0.00 0.00 57 1018.8
20170626163630 68 261 1.0 6.0 0.00 0.00 0.00 57 1018.7
20170626163327 68 237 1.0 8.0 0.00 0.00 0.00 58 1018.8
20170626163022 69 155 1.0 8.0 0.00 0.00 0.00 56 1018.8
20170626162720 69 326 1.0 8.0 0.00 0.00 0.00 55 1018.7
20170626162416 69 226 2.0 9.0 0.00 0.00 0.00 60 1018.7
20170626161223 68 309 2.0 9.0 0.00 0.00 0.00 57 1018.8
20170626160618 68 223 1.0 9.0 0.00 0.00 0.00 62 1018.8
20170626160322 67 204 1.0 8.0 0.00 0.00 0.00 59 1018.9
20170626160008 67 332 1.0 6.0 0.00 0.00 0.00 59 1019.0
20170626155657 68 325 1.0 6.0 0.00 0.00 0.00 59 1018.9
20170626155347 68 188 1.0 6.0 0.00 0.00 0.00 58 1019.0
20170626155033 68 38 1.0 10.0 0.00 0.00 0.00 59 1018.9
20170626154720 68 210 1.0 10.0 0.00 0.00 0.00 60 1019.0
20170626154113 68 223 1.0 10.0 0.00 0.00 0.00 56 1019.1
20170626153814 68 321 2.0 10.0 0.00 0.00 0.00 56 1019.0
20170626153155 67 217 2.0 10.0 0.00 0.00 0.00 60 1019.0
20170626151942 67 259 1.0 7.0 0.00 0.00 0.00 61 1019.0
20170626151326 68 342 1.0 7.0 0.00 0.00 0.00 60 1019.0
20170626151026 68 272 1.0 7.0 0.00 0.00 0.00 59 1019.0
20170626150720 67 310 0.0 6.0 0.00 0.00 0.00 64 1018.9
20170626150417 67 254 0.0 6.0 0.00 0.00 0.00 62 1019.1
20170626145152 67 302 1.0 3.0 0.00 0.00 0.00 61 1019.1
20170626144839 66 209 0.0 3.0 0.00 0.00 0.00 65 1019.1
20170626144532 66 257 0.0 4.0 0.00 0.00 0.00 64 1019.0
20170626144224 66 321 1.0 4.0 0.00 0.00 0.00 62 1019.0
20170626143911 66 301 1.0 4.0 0.00 0.00 0.00 60 1019.0
20170626143600 67 304 1.0 8.0 0.00 0.00 0.00 63 1019.0
20170626143249 67 248 1.0 8.0 0.00 0.00 0.00 58 1019.0
20170626142939 67 330 1.0 8.0 0.00 0.00 0.00 61 1019.0
20170626142641 67 284 2.0 9.0 0.00 0.00 0.00 62 1019.0
20170626142031 67 292 2.0 9.0 0.00 0.00 0.00 58 1018.9
20170626141727 67 228 2.0 9.0 0.00 0.00 0.00 61 1018.9
20170626140531 66 203 2.0 7.0 0.00 0.00 0.00 62 1018.8
20170626140232 66 291 2.0 7.0 0.00 0.00 0.00 59 1018.9
20170626135936 66 149 2.0 7.0 0.00 0.00 0.00 61 1018.8
20170626135623 66 247 2.0 7.0 0.00 0.00 0.00 61 1018.8
20170626135317 66 296 2.0 7.0 0.00 0.00 0.00 60 1018.8
20170626135007 66 233 2.0 7.0 0.00 0.00 0.00 60 1018.8
20170626134357 66 259 2.0 7.0 0.00 0.00 0.00 64 1018.8
20170626134048 66 211 2.0 7.0 0.00 0.00 0.00 63 1018.8
20170626132513 65 255 1.0 5.0 0.00 0.00 0.00 68 1018.9
20170626132203 64 253 1.0 5.0 0.00 0.00 0.00 66 1019.0
20170626131247 64 256 1.0 4.0 0.00 0.00 0.00 70 1019.0
20170626130936 64 228 0.0 4.0 0.00 0.00 0.00 72 1019.1
20170626130630 63 205 1.0 4.0 0.00 0.00 0.00 71 1019.1
20170626130318 63 270 0.0 4.0 0.00 0.00 0.00 72 1019.1
20170626125659 62 286 1.0 7.0 0.00 0.00 0.00 72 1019.1
20170626125354 61 267 0.0 7.0 0.00 0.00 0.00 73 1019.0
20170626125053 61 292 1.0 7.0 0.00 0.00 0.00 75 1019.1
20170626124751 61 281 0.0 7.0 0.00 0.00 0.00 75 1019.1
20170626124449 60 279 1.0 7.0 0.00 0.00 0.00 76 1019.1
20170626124143 60 205 0.0 7.0 0.00 0.00 0.00 76 1019.1
20170626123844 59 216 0.0 4.0 0.00 0.00 0.00 79 1019.1
20170626122635 58 227 0.0 2.0 0.00 0.00 0.00 80 1019.0
20170626122028 57 196 0.0 1.0 0.00 0.00 0.00 82 1019.1
20170626121404 56 202 0.0 3.0 0.00 0.00 0.00 83 1019.1
20170626121053 56 234 0.0 2.0 0.00 0.00 0.00 83 1019.1
20170626120450 55 223 0.0 2.0 0.00 0.00 0.00 83 1019.1
20170626120142 55 211 0.0 2.0 0.00 0.00 0.00 83 1019.0
20170626115829 55 244 0.0 2.0 0.00 0.00 0.00 84 1019.0
20170626115519 55 188 0.0 2.0 0.00 0.00 0.00 84 1019.0
20170626115206 55 228 0.0 1.0 0.00 0.00 0.00 85 1019.0
20170626114558 54 227 0.0 0.0 0.00 0.00 0.00 85 1018.9
20170626113643 53 218 0.0 2.0 0.00 0.00 0.00 85 1018.9
20170626113341 53 211 0.0 2.0 0.00 0.00 0.00 85 1018.9
20170626113030 53 190 0.0 1.0 0.00 0.00 0.00 85 1018.9
20170626112730 53 227 0.0 1.0 0.00 0.00 0.00 86 1018.9
20170626112123 52 226 0.0 0.0 0.00 0.00 0.00 86 1018.9
20170626111822 52 226 0.0 1.0 0.00 0.00 0.00 86 1018.9
20170626110912 52 215 0.0 0.0 0.00 0.00 0.00 86 1018.9
20170626110312 52 215 0.0 0.0 0.00 0.00 0.00 86 1018.8
20170626110012 51 215 0.0 0.0 0.00 0.00 0.00 86 1018.8
20170626105403 51 215 0.0 0.0 0.00 0.00 0.00 86 1018.8
20170626104751 51 215 0.0 0.0 0.00 0.00 0.00 86 1018.8
20170626104443 51 220 0.0 0.0 0.00 0.00 0.00 86 1018.8
20170626104144 51 220 0.0 0.0 0.00 0.00 0.00 86 1018.8
20170626103519 51 220 0.0 0.0 0.00 0.00 0.00 86 1018.7
20170626103219 51 220 0.0 0.0 0.00 0.00 0.00 86 1018.7
20170626102913 51 220 0.0 0.0 0.00 0.00 0.00 85 1018.7
20170626102602 51 220 0.0 0.0 0.00 0.00 0.00 85 1018.7
20170626102250 51 220 0.0 0.0 0.00 0.00 0.00 85 1018.6
20170626101635 51 220 0.0 0.0 0.00 0.00 0.00 85 1018.7
20170626101335 51 220 0.0 0.0 0.00 0.00 0.00 84 1018.6
20170626101031 51 220 0.0 0.0 0.00 0.00 0.00 84 1018.7
20170626100421 51 220 0.0 0.0 0.00 0.00 0.00 84 1018.6
20170626100121 51 220 0.0 0.0 0.00 0.00 0.00 84 1018.6
20170626095810 51 220 0.0 0.0 0.00 0.00 0.00 84 1018.6
20170626095510 51 220 0.0 0.0 0.00 0.00 0.00 85 1018.6
20170626094906 51 220 0.0 0.0 0.00 0.00 0.00 85 1018.5
20170626094256 51 220 0.0 0.0 0.00 0.00 0.00 85 1018.5
20170626093957 51 220 0.0 0.0 0.00 0.00 0.00 85 1018.4
20170626093047 51 220 0.0 0.0 0.00 0.00 0.00 84 1018.4
20170626092131 51 220 0.0 0.0 0.00 0.00 0.00 84 1018.3
20170626091827 51 220 0.0 0.0 0.00 0.00 0.00 83 1018.3
20170626091523 51 220 0.0 0.0 0.00 0.00 0.00 83 1018.3
20170626090913 51 220 0.0 0.0 0.00 0.00 0.00 84 1018.2
20170626090606 51 220 0.0 0.0 0.00 0.00 0.00 83 1018.1
20170626090255 51 220 0.0 0.0 0.00 0.00 0.00 83 1018.1
20170626085951 51 220 0.0 0.0 0.00 0.00 0.00 84 1018.1
20170626085638 51 220 0.0 0.0 0.00 0.00 0.00 83 1018.2
20170626085023 51 220 0.0 0.0 0.00 0.00 0.00 83 1018.2
20170626084417 51 220 0.0 0.0 0.00 0.00 0.00 83 1018.1
20170626084109 51 220 0.0 0.0 0.00 0.00 0.00 83 1018.2
20170626083509 51 220 0.0 0.0 0.00 0.00 0.00 83 1018.1
20170626082857 51 220 0.0 0.0 0.00 0.00 0.00 82 1018.0
20170626081941 51 220 0.0 0.0 0.00 0.00 0.00 83 1018.1
20170626081646 51 220 0.0 0.0 0.00 0.00 0.00 83 1018.2
20170626081338 51 220 0.0 0.0 0.00 0.00 0.00 82 1018.1
20170626081038 51 220 0.0 0.0 0.00 0.00 0.00 82 1018.1
20170626080728 51 220 0.0 0.0 0.00 0.00 0.00 82 1018.1
20170626075206 51 220 0.0 0.0 0.00 0.00 0.00 82 1018.0
20170626074259 52 220 0.0 0.0 0.00 0.00 0.00 82 1018.1
20170626073656 52 220 0.0 0.0 0.00 0.00 0.00 82 1018.2
20170626073355 52 220 0.0 0.0 0.00 0.00 0.00 82 1018.2
20170626073047 52 220 0.0 0.0 0.00 0.00 0.00 82 1018.1
20170626072739 52 220 0.0 0.0 0.00 0.00 0.00 82 1018.2
20170626072437 52 220 0.0 0.0 0.00 0.00 0.00 82 1018.2
20170626072125 52 220 0.0 0.0 0.00 0.00 0.00 81 1018.2
20170626071814 52 220 0.0 0.0 0.00 0.00 0.00 81 1018.2
20170626071502 52 220 0.0 0.0 0.00 0.00 0.00 81 1018.2
20170626071150 52 220 0.0 0.0 0.00 0.00 0.00 80 1018.2
20170626070853 52 220 0.0 0.0 0.00 0.00 0.00 80 1018.2
20170626070234 53 220 0.0 0.0 0.00 0.00 0.00 79 1018.2
20170626065307 53 215 0.0 0.0 0.00 0.00 0.00 78 1018.3
20170626065010 53 215 0.0 0.0 0.00 0.00 0.00 78 1018.4
20170626064658 53 215 0.0 0.0 0.00 0.00 0.00 78 1018.4
20170626064359 53 215 0.0 0.0 0.00 0.00 0.00 78 1018.3
20170626064102 53 215 0.0 0.0 0.00 0.00 0.00 77 1018.3
20170626063756 53 215 0.0 0.0 0.00 0.00 0.00 77 1018.3
20170626062520 53 215 0.0 0.0 0.00 0.00 0.00 77 1018.5
20170626062218 53 215 0.0 0.0 0.00 0.00 0.00 77 1018.5
20170626061258 54 188 0.0 0.0 0.00 0.00 0.00 76 1018.5
20170626060953 54 188 0.0 0.0 0.00 0.00 0.00 75 1018.5
20170626060643 54 188 0.0 0.0 0.00 0.00 0.00 75 1018.6
20170626060333 54 188 0.0 0.0 0.00 0.00 0.00 75 1018.5
20170626060028 54 188 0.0 0.0 0.00 0.00 0.00 75 1018.5
20170626055715 54 188 0.0 0.0 0.00 0.00 0.00 74 1018.6
20170626055409 54 188 0.0 0.0 0.00 0.00 0.00 74 1018.5
20170626055108 54 188 0.0 0.0 0.00 0.00 0.00 74 1018.6
20170626054459 54 188 0.0 0.0 0.00 0.00 0.00 75 1018.7
20170626054145 54 188 0.0 0.0 0.00 0.00 0.00 75 1018.7
20170626053521 54 188 0.0 0.0 0.00 0.00 0.00 76 1018.6
20170626053225 54 188 0.0 0.0 0.00 0.00 0.00 76 1018.7
20170626052631 54 188 0.0 0.0 0.00 0.00 0.00 76 1018.7
20170626052323 54 188 0.0 0.0 0.00 0.00 0.00 76 1018.6
20170626052022 54 188 0.0 0.0 0.00 0.00 0.00 77 1018.7
20170626051127 54 188 0.0 0.0 0.00 0.00 0.00 73 1018.7
20170626050823 55 188 0.0 0.0 0.00 0.00 0.00 73 1018.7
20170626045904 55 188 0.0 0.0 0.00 0.00 0.00 73 1018.7
20170626045256 54 188 0.0 0.0 0.00 0.00 0.00 72 1018.7
20170626045000 55 188 0.0 0.0 0.00 0.00 0.00 71 1018.8
20170626044651 55 188 0.0 0.0 0.00 0.00 0.00 72 1018.8
20170626044343 55 188 0.0 0.0 0.00 0.00 0.00 72 1018.8
20170626044039 55 188 0.0 0.0 0.00 0.00 0.00 72 1018.9
20170626043739 55 188 0.0 0.0 0.00 0.00 0.00 73 1018.9
20170626043429 55 188 0.0 0.0 0.00 0.00 0.00 73 1018.9
20170626043127 56 188 0.0 0.0 0.00 0.00 0.00 73 1018.9
20170626042828 56 188 0.0 0.0 0.00 0.00 0.00 73 1018.9
20170626042522 56 188 0.0 0.0 0.00 0.00 0.00 70 1018.9
20170626042218 56 188 0.0 0.0 0.00 0.00 0.00 69 1018.9
20170626041915 56 67 0.0 0.0 0.00 0.00 0.00 70 1019.0
20170626041010 56 67 0.0 0.0 0.00 0.00 0.00 68 1019.0
20170626040705 56 67 0.0 0.0 0.00 0.00 0.00 68 1018.9
20170626040405 56 67 0.0 0.0 0.00 0.00 0.00 69 1018.9
20170626040103 56 67 0.0 0.0 0.00 0.00 0.00 69 1018.9
20170626035752 56 67 0.0 0.0 0.00 0.00 0.00 69 1019.0
20170626035439 56 67 0.0 0.0 0.00 0.00 0.00 68 1019.0
20170626035128 56 67 0.0 0.0 0.00 0.00 0.00 66 1019.0
20170626034220 57 67 0.0 0.0 0.00 0.00 0.00 65 1019.0
20170626033913 57 67 0.0 0.0 0.00 0.00 0.00 64 1019.0
20170626033601 57 67 0.0 0.0 0.00 0.00 0.00 64 1019.0
20170626032955 57 67 0.0 0.0 0.00 0.00 0.00 64 1019.0
20170626032649 57 67 0.0 0.0 0.00 0.00 0.00 64 1019.1
20170626032350 57 67 0.0 0.0 0.00 0.00 0.00 63 1019.0
20170626032048 57 67 0.0 0.0 0.00 0.00 0.00 63 1019.1
20170626031142 57 67 0.0 0.0 0.00 0.00 0.00 62 1019.1
20170626030828 57 67 0.0 0.0 0.00 0.00 0.00 62 1019.0
20170626030521 57 67 0.0 0.0 0.00 0.00 0.00 62 1019.0
20170626025901 58 67 0.0 0.0 0.00 0.00 0.00 62 1019.0
20170626025549 58 67 0.0 0.0 0.00 0.00 0.00 63 1019.1
20170626025248 58 67 0.0 0.0 0.00 0.00 0.00 62 1019.0
20170626024947 58 67 0.0 0.0 0.00 0.00 0.00 61 1019.0
20170626024638 58 67 0.0 0.0 0.00 0.00 0.00 62 1019.0
20170626024037 58 67 0.0 0.0 0.00 0.00 0.00 61 1019.0
20170626023735 58 67 0.0 0.0 0.00 0.00 0.00 61 1019.0
20170626022210 58 67 0.0 0.0 0.00 0.00 0.00 60 1018.9
20170626021910 58 67 0.0 0.0 0.00 0.00 0.00 60 1019.0
20170626021301 59 67 0.0 0.0 0.00 0.00 0.00 61 1018.9
20170626020950 59 67 0.0 0.0 0.00 0.00 0.00 61 1018.9
20170626020650 59 67 0.0 0.0 0.00 0.00 0.00 61 1018.9
20170626020352 59 67 0.0 0.0 0.00 0.00 0.00 59 1018.9
20170626015730 59 67 0.0 0.0 0.00 0.00 0.00 59 1018.9
20170626015430 59 67 0.0 0.0 0.00 0.00 0.00 58 1018.8
20170626015125 60 67 0.0 0.0 0.00 0.00 0.00 58 1018.8
20170626014826 60 67 0.0 0.0 0.00 0.00 0.00 57 1018.7
20170626013904 60 67 0.0 0.0 0.00 0.00 0.00 57 1018.6
20170626013557 60 67 0.0 0.0 0.00 0.00 0.00 56 1018.6
20170626012701 61 67 0.0 0.0 0.00 0.00 0.00 56 1018.5
20170626012357 61 67 0.0 0.0 0.00 0.00 0.00 55 1018.5
20170626011452 62 67 0.0 0.0 0.00 0.00 0.00 55 1018.5
20170626010847 62 67 0.0 0.0 0.00 0.00 0.00 55 1018.5
20170626010538 62 67 0.0 0.0 0.00 0.00 0.00 54 1018.5
20170626010234 62 67 0.0 0.0 0.00 0.00 0.00 54 1018.4
20170626005929 63 67 0.0 0.0 0.00 0.00 0.00 54 1018.4
20170626005631 63 67 0.0 0.0 0.00 0.00 0.00 54 1018.4
20170626005028 63 67 0.0 0.0 0.00 0.00 0.00 54 1018.3
20170626004714 64 67 0.0 0.0 0.00 0.00 0.00 54 1018.3
20170626004057 64 67 0.0 0.0 0.00 0.00 0.00 54 1018.2
20170626003743 64 67 0.0 0.0 0.00 0.00 0.00 54 1018.3
20170626003444 65 67 0.0 0.0 0.00 0.00 0.00 53 1018.3
20170626003140 65 54 0.0 0.0 0.00 0.00 0.00 53 1018.2
20170626002836 65 54 0.0 1.0 0.00 0.00 0.00 52 1018.2
20170626002530 65 166 0.0 0.0 0.00 0.00 0.00 51 1018.2
20170626001931 66 171 0.0 0.0 0.00 0.00 0.00 51 1018.2
20170626001633 66 171 0.0 0.0 0.00 0.00 0.00 50 1018.1
20170626001025 66 180 0.0 3.0 0.00 0.00 0.00 50 1018.1
20170626000714 66 336 0.0 3.0 0.00 0.00 0.00 48 1018.1
20170626000408 67 26 0.0 3.0 0.00 0.00 0.00 48 1018.1
20170625235442 67 282 1.0 7.0 0.00 0.00 0.00 48 1017.9
20170625235132 67 0 1.0 7.0 0.00 0.00 0.00 48 1017.9
20170625234823 67 288 1.0 7.0 0.00 0.00 0.00 46 1017.9
20170625233857 68 292 0.0 4.0 0.00 0.00 0.00 46 1017.8
20170625233544 68 136 1.0 4.0 0.00 0.00 0.00 46 1017.7
20170625233241 68 250 0.0 6.0 0.00 0.00 0.00 46 1017.7
20170625232935 68 155 0.0 6.0 0.00 0.00 0.00 46 1017.7
20170625232638 68 40 1.0 6.0 0.00 0.00 0.00 48 1017.7
20170625232331 68 65 1.0 8.0 0.00 0.00 0.00 45 1017.7
20170625231709 68 46 1.0 8.0 0.00 0.00 0.00 45 1017.6
20170625231358 68 52 1.0 8.0 0.00 0.00 0.00 45 1017.5
20170625230740 69 276 1.0 8.0 0.00 0.00 0.00 44 1017.5
20170625230433 69 271 1.0 8.0 0.00 0.00 0.00 46 1017.4
20170625230129 69 323 1.0 6.0 0.00 0.00 0.00 46 1017.5
20170625225821 69 44 1.0 6.0 0.00 0.00 0.00 47 1017.5
20170625225512 69 34 1.0 6.0 0.00 0.00 0.00 47 1017.5
20170625224858 69 31 1.0 6.0 0.00 0.00 0.00 45 1017.5
20170625224245 70 322 1.0 5.0 0.00 0.00 0.00 46 1017.5
20170625223933 70 279 1.0 3.0 0.00 0.00 0.00 46 1017.4
20170625223322 70 335 1.0 9.0 0.00 0.00 0.00 42 1017.4
20170625223021 70 34 1.0 9.0 0.00 0.00 0.00 44 1017.3
20170625222426 71 90 2.0 9.0 0.00 0.00 0.00 42 1017.2
20170625221802 72 70 2.0 9.0 0.00 0.00 0.00 43 1017.2
20170625221455 72 322 1.0 8.0 0.00 0.00 0.00 44 1017.2
20170625221151 72 267 2.0 8.0 0.00 0.00 0.00 42 1017.3
20170625220839 72 24 2.0 8.0 0.00 0.00 0.00 41 1017.3
20170625220537 72 5 2.0 8.0 0.00 0.00 0.00 44 1017.3
20170625215325 73 348 1.0 7.0 0.00 0.00 0.00 41 1017.2
20170625215026 73 0 1.0 7.0 0.00 0.00 0.00 41 1017.2
20170625214422 73 79 1.0 8.0 0.00 0.00 0.00 43 1017.1
20170625213502 73 355 1.0 10.0 0.00 0.00 0.00 43 1017.3
20170625213202 73 20 1.0 10.0 0.00 0.00 0.00 41 1017.3
20170625212852 73 290 1.0 10.0 0.00 0.00 0.00 44 1017.3
20170625212554 73 5 2.0 10.0 0.00 0.00 0.00 38 1017.4
20170625212250 73 315 2.0 10.0 0.00 0.00 0.00 42 1017.3
20170625211936 73 346 2.0 10.0 0.00 0.00 0.00 40 1017.3
20170625210709 74 12 1.0 6.0 0.00 0.00 0.00 44 1017.2
20170625210411 74 181 1.0 6.0 0.00 0.00 0.00 42 1017.3
20170625210107 74 140 1.0 10.0 0.00 0.00 0.00 43 1017.4
20170625205501 74 44 2.0 10.0 0.00 0.00 0.00 41 1017.4
20170625204855 74 186 3.0 13.0 0.00 0.00 0.00 39 1017.4
20170625204243 74 257 3.0 13.0 0.00 0.00 0.00 38 1017.4
20170625203937 74 327 3.0 13.0 0.00 0.00 0.00 37 1017.5
20170625203010 75 300 3.0 9.0 0.00 0.00 0.00 41 1017.4
20170625201447 75 12 2.0 8.0 0.00 0.00 0.00 39 1017.3
20170625201146 75 265 2.0 13.0 0.00 0.00 0.00 42 1017.2
20170625200540 75 198 2.0 13.0 0.00 0.00 0.00 39 1017.2
20170625200231 75 294 3.0 13.0 0.00 0.00 0.00 41 1017.3
20170625195628 75 74 3.0 13.0 0.00 0.00 0.00 39 1017.3
20170625195314 74 285 2.0 11.0 0.00 0.00 0.00 39 1017.5
20170625195008 74 318 3.0 11.0 0.00 0.00 0.00 38 1017.2
20170625194700 74 29 3.0 12.0 0.00 0.00 0.00 37 1017.3
20170625194353 74 288 3.0 12.0 0.00 0.00 0.00 37 1017.3
20170625193452 74 203 3.0 12.0 0.00 0.00 0.00 42 1017.4
20170625193140 74 300 3.0 12.0 0.00 0.00 0.00 41 1017.3
20170625192843 74 286 3.0 13.0 0.00 0.00 0.00 40 1017.4
20170625192226 74 246 2.0 13.0 0.00 0.00 0.00 43 1017.4
20170625191920 75 282 2.0 13.0 0.00 0.00 0.00 44 1017.4
20170625191615 75 292 2.0 13.0 0.00 0.00 0.00 42 1017.3
20170625191304 75 231 2.0 13.0 0.00 0.00 0.00 43 1017.3
20170625190702 75 41 2.0 12.0 0.00 0.00 0.00 50 1017.3